Overview Statistics Trail Chart Weather Telemetry Raw packets
 

This is the latest recevied weather packets stored in our database for station/object KQ7A. If no packets are shown the sender has not sent any weather packets the latest 10 day(s).

<< 18 19 20 21 22 23 24 >>
Time Temp. Humidity Pressure Rain* Wind** Luminosity Snow
1788556364 19.44° C 42% 1015.3 hPa 0 mm - 263 W/m² -
1788556058 18.89° C 42% 1015.3 hPa 0 mm - 255 W/m² -
1788555753 18.89° C 43% 1015.1 hPa 0 mm - 270 W/m² -
1788555450 18.89° C 43% 1015 hPa 0 mm - 216 W/m² -
1788555145 18.89° C 43% 1015 hPa 0 mm - 269 W/m² -
1788554844 18.89° C 42% 1015.2 hPa 0 mm - 274 W/m² -
1788554538 18.33° C 42% 1014.8 hPa 0 mm - 264 W/m² -
1788554233 18.89° C 42% 1015.3 hPa 0 mm - 257 W/m² -
1788553930 18.33° C 44% 1015.3 hPa 0 mm - 241 W/m² -
1788553625 18.89° C 43% 1015.1 hPa 0 mm - 263 W/m² -
1788553315 18.33° C 44% 1015 hPa 0 mm - 264 W/m² -
1788553010 18.89° C 44% 1015.1 hPa 0 mm - 297 W/m² -
1788552704 18.33° C 44% 1015.2 hPa 0 mm - 833 W/m² -
1788552399 17.78° C 46% 1015 hPa 0 mm - 263 W/m² -
1788552094 17.78° C 45% 1015.1 hPa 0 mm - 234 W/m² -
1788551793 17.78° C 46% 1015 hPa 0 mm - 528 W/m² -
1788551492 17.78° C 46% 1015.2 hPa 0 mm - 186 W/m² -
1788551186 17.78° C 46% 1015.3 hPa 0 mm - 221 W/m² -
1788550880 17.78° C 46% 1015.3 hPa 0 mm - 189 W/m² -
1788550575 17.78° C 45% 1015 hPa 0 mm - 167 W/m² -
1788550272 17.78° C 46% 1015.3 hPa 0 mm - 229 W/m² -
1788549972 17.78° C 44% 1015.3 hPa 0 mm - 180 W/m² -
1788549668 17.78° C 45% 1015.2 hPa 0 mm - 219 W/m² -
1788549364 17.78° C 44% 1014.8 hPa 0 mm - 233 W/m² -
1788549060 17.78° C 45% 1015.1 hPa 0 mm - 323 W/m² -

* Rain latest hour (hover to see other rain measurements)
** Current wind speed in m/s (hover to see current wind gust speed)